DW0226 Bushwood MD US current weather conditions

sailwx.info

Wind from 288 at 4 knots gusting 7

Air temperature 7.8° C
Dewpoint 1.6° C

Last reported at 2020-Jan-28 21:00 UTC.
Time now 2020-Jan-28 22:06 UTC

Location: N 38°18' W 076°48'.
View on Google Maps.

See reports from other nearby stations

  
Tides and Currents Weather Stations Pressure Air Temp Water Temp Dewpoint Dewpoint Depression Visibility Wind Speed Wind Dir Waves Ship Positions
date/time (UTC)wind fromknots sea level pressurealtimeterstation pressurevisibilityair tempwater tempwave heightnotes
2020-Jan-28 21:00 288 4 gusting 7 7.8
2020-Jan-28 20:50 294 6 gusting 11 7.8
2020-Jan-28 20:40 300 3 gusting 9 7.8
2020-Jan-28 20:30 274 1 gusting 6 7.8
2020-Jan-28 20:20 286 4 gusting 10 7.8
2020-Jan-28 20:10 286 6 gusting 9 7.8
2020-Jan-28 20:00 293 5 gusting 10 7.8
2020-Jan-28 19:50 273 3 gusting 12 7.8
2020-Jan-28 19:40 294 5 gusting 13 7.8
2020-Jan-28 19:30 285 5 gusting 10 7.8
2020-Jan-28 19:20 304 7 gusting 11 7.8
2020-Jan-28 19:10 304 3 gusting 11 7.8
2020-Jan-28 19:00 304 5 gusting 13 7.8
2020-Jan-28 18:50 308 6 gusting 13 7.8
2020-Jan-28 18:40 296 5 gusting 13 7.8
2020-Jan-28 18:30 279 6 gusting 13 7.8
2020-Jan-28 18:20 284 3 gusting 10 7.8
2020-Jan-28 18:10 284 4 gusting 10 7.8
2020-Jan-28 18:00 279 5 gusting 8 8.3
2020-Jan-28 17:50 298 6 gusting 9 8.3
2020-Jan-28 17:40 300 6 gusting 13 7.8
2020-Jan-28 17:30 306 7 gusting 14 7.2
2020-Jan-28 17:20 310 6 gusting 10 7.2
2020-Jan-28 17:10 275 6 gusting 10 7.2
2020-Jan-28 17:00 293 5 gusting 11 7.2
2020-Jan-28 16:50 287 6 gusting 11 7.2
2020-Jan-28 16:40 302 7 gusting 13 7.8
2020-Jan-28 16:30 306 4 gusting 14 7.8
2020-Jan-28 16:20 311 6 gusting 11 7.8
2020-Jan-28 16:10 298 5 gusting 12 7.8
2020-Jan-28 16:00 302 4 gusting 10 7.2
2020-Jan-28 15:50 288 6 gusting 13 7.2
2020-Jan-28 15:40 298 9 gusting 14 7.2
2020-Jan-28 15:30 289 7 gusting 12 7.8
2020-Jan-28 15:20 334 7.8
2020-Jan-28 15:10 288 7 gusting 13 7.2
2020-Jan-28 15:00 302 2 gusting 7 6.7
2020-Jan-28 14:50 292 3 gusting 8 6.7
2020-Jan-28 14:40 308 8 gusting 13 6.7
2020-Jan-28 14:30 297 5 gusting 11 6.7
2020-Jan-28 14:20 304 5 gusting 9 6.1
2020-Jan-28 14:10 302 5 gusting 10 6.1
2020-Jan-28 14:00 288 4 gusting 10 6.1
2020-Jan-28 13:50 301 3 gusting 8 6.1
2020-Jan-28 13:40 294 5 gusting 7 5.6
2020-Jan-28 13:30 290 3 gusting 6 5.6
2020-Jan-28 13:20 308 2 gusting 5 5.6
2020-Jan-28 13:10 297 5.6
2020-Jan-28 13:00 293 2 gusting 5 5.0
2020-Jan-28 12:50 307 2 gusting 4 5.0
2020-Jan-28 12:40 304 2 gusting 10 5.0
2020-Jan-28 12:30 298 3 gusting 5 5.0
2020-Jan-28 12:20 304 1 gusting 6 5.0
2020-Jan-28 12:10 301 1 gusting 7 5.0
2020-Jan-28 12:00 302 3 gusting 8 5.0
2020-Jan-28 11:50 280 3 gusting 7 5.0
2020-Jan-28 11:40 289 6 gusting 9 5.0
2020-Jan-28 11:30 293 3 gusting 8 5.0
2020-Jan-28 11:20 301 2 gusting 6 5.0
2020-Jan-28 11:10 304 4 gusting 9 5.0
2020-Jan-28 11:00 294 5 gusting 7 5.0
2020-Jan-28 10:50 285 4 gusting 7 5.0
2020-Jan-28 10:40 307 6 gusting 7 5.0
2020-Jan-28 10:30 301 3 gusting 9 5.6
2020-Jan-28 10:20 288 4 gusting 8 5.6
2020-Jan-28 10:10 298 3 gusting 8 5.6
2020-Jan-28 10:00 297 2 gusting 9 5.6
2020-Jan-28 09:50 306 3 gusting 11 5.6
2020-Jan-28 09:40 276 6 gusting 9 5.6
2020-Jan-28 09:30 291 4 gusting 8 5.6
2020-Jan-28 09:20 293 5 gusting 9 5.6
2020-Jan-28 09:10 289 5 gusting 12 5.6
2020-Jan-28 09:00 290 6 gusting 13 5.6
2020-Jan-28 08:50 292 7 gusting 11 5.6
2020-Jan-28 08:40 298 5 gusting 9 5.6
2020-Jan-28 08:30 293 6 gusting 13 5.6
2020-Jan-28 08:20 300 3 gusting 10 5.6
2020-Jan-28 08:10 271 6 gusting 10 5.6
2020-Jan-28 08:00 304 2 gusting 12 5.6
2020-Jan-28 07:50 298 1 gusting 12 5.6
2020-Jan-28 07:40 288 4 gusting 12 5.6
2020-Jan-28 07:30 296 5 gusting 8 5.6
2020-Jan-28 07:20 304 2 gusting 6 5.6
2020-Jan-28 07:10 337 4 gusting 9 5.6
2020-Jan-28 07:00 292 5.6
2020-Jan-28 06:50 299 4 gusting 8 5.6
2020-Jan-28 06:40 300 5 gusting 10 5.6
2020-Jan-28 06:30 288 2 gusting 11 5.6
2020-Jan-28 06:20 280 6.1
2020-Jan-28 06:10 279 1 gusting 9 6.1
2020-Jan-28 06:00 299 3 gusting 6 6.1
2020-Jan-28 05:50 294 4 gusting 7 6.1
2020-Jan-28 05:40 294 6.1
2020-Jan-28 05:30 279 2 gusting 11 6.1
2020-Jan-28 05:20 303 3 gusting 10 6.1
2020-Jan-28 05:10 293 3 gusting 7 6.1
2020-Jan-28 05:00 302 6.1
2020-Jan-28 04:50 290 6.1
2020-Jan-28 04:40 294 6.1
2020-Jan-28 04:30 303 6.1
2020-Jan-28 04:20 303 6.7
2020-Jan-28 04:10 292 1 gusting 7 6.7
2020-Jan-28 04:00 299 3 gusting 6 6.7
2020-Jan-28 03:50 320 6.7
2020-Jan-28 03:40 295 6.7
2020-Jan-28 03:30 311 1 gusting 7 6.7
2020-Jan-28 03:20 291 0 gusting 9 7.2
2020-Jan-28 03:10 335 7.2
2020-Jan-28 03:00 360 2 gusting 8 7.2
2020-Jan-28 02:50 336 7.2
2020-Jan-28 02:40 320 2 gusting 9 7.2
2020-Jan-28 02:30 307 1 gusting 7 7.2
2020-Jan-28 02:20 291 1 gusting 11 7.2
2020-Jan-28 02:10 350 7.2
2020-Jan-28 02:00 337 7.8
2020-Jan-28 01:50 342 0 gusting 8 7.8
2020-Jan-28 01:40 302 2 gusting 7 7.8
2020-Jan-28 01:30 296 6 gusting 12 7.8
2020-Jan-28 01:20 333 0 gusting 9 7.8
2020-Jan-28 01:10 325 1 gusting 6 7.8
2020-Jan-28 01:00 317 0 gusting 8 8.3
2020-Jan-28 00:50 313 8.3
2020-Jan-28 00:40 325 8.3
2020-Jan-28 00:30 344 2 gusting 6 8.3
2020-Jan-28 00:20 321 8.3
2020-Jan-28 00:10 342 8.9
2020-Jan-28 00:00 332 8.9
2020-Jan-27 23:50 313 8.9
2020-Jan-27 23:40 306 0 gusting 8 8.9
2020-Jan-27 23:30 336 1 gusting 9 9.4
2020-Jan-27 23:20 334 1 gusting 9 9.4
2020-Jan-27 23:10 328 2 gusting 8 9.4
2020-Jan-27 23:00 331 9.4
2020-Jan-27 22:50 330 9.4
2020-Jan-27 22:40 340 9.4
2020-Jan-27 22:30 322 0 gusting 5 10.0
2020-Jan-27 22:20 319 10.0
2020-Jan-27 22:10 311 10.0
2020-Jan-27 22:00 313 10.0
2020-Jan-27 21:50 309 10.0
2020-Jan-27 21:40 309 10.6
2020-Jan-27 21:30 287 10.6
2020-Jan-27 21:20 299 10.6
2020-Jan-27 21:10 275 10.6
2020-Jan-27 21:00 298 10.6
2020-Jan-27 20:50 299 10.6
2020-Jan-27 20:40 300 10.6
2020-Jan-27 20:30 270 11.1
2020-Jan-27 20:20 269 11.1
2020-Jan-27 20:10 279 11.1
2020-Jan-27 20:00 284 11.7
2020-Jan-27 19:50 287 11.1
2020-Jan-27 19:40 304 11.1
2020-Jan-27 19:30 286 10.6
2020-Jan-27 19:20 283 11.1
2020-Jan-27 19:10 262 11.1
2020-Jan-27 19:00 269 11.1
2020-Jan-27 18:50 270 11.1
2020-Jan-27 18:40 223 11.1
2020-Jan-27 18:30 311 11.1
2020-Jan-27 18:20 263 10.6
2020-Jan-27 18:10 259 10.6
2020-Jan-27 18:00 282 2 gusting 6 10.6
2020-Jan-27 17:50 260 4 gusting 8 10.6
2020-Jan-27 17:40 227 3 gusting 10 10.0
2020-Jan-27 17:30 252 5 gusting 10 10.0
2020-Jan-27 17:20 219 3 gusting 7 10.0
2020-Jan-27 17:10 245 5 gusting 9 9.4
2020-Jan-27 17:00 253 2 gusting 7 8.9
2020-Jan-27 16:50 234 1 gusting 5 8.9
2020-Jan-27 16:40 248 2 gusting 8 8.9
2020-Jan-27 16:30 274 2 gusting 5 8.3
2020-Jan-27 16:20 256 0 gusting 5 8.3
2020-Jan-27 16:10 221 0 gusting 4 8.9
2020-Jan-27 16:00 229 8.9
2020-Jan-27 15:50 279 0 gusting 3 8.3
2020-Jan-27 15:40 279 1 gusting 4 7.8
2020-Jan-27 15:30 215 0 gusting 4 7.2
2020-Jan-27 15:20 242 0 gusting 4 7.2
2020-Jan-27 15:10 238 1 gusting 4 6.7
2020-Jan-27 15:00 254 2 gusting 4 6.1
2020-Jan-27 14:50 252 5.6
2020-Jan-27 14:40 282 5.0
2020-Jan-27 14:30 282 5.0
2020-Jan-27 14:20 249 0 gusting 4 4.4
2020-Jan-27 14:10 255 4.4
2020-Jan-27 14:00 263 4.4
2020-Jan-27 13:50 262 3.3
2020-Jan-27 13:30 262 1.7
2020-Jan-27 13:20 262 1.7
2020-Jan-27 13:10 262 1.7
2020-Jan-27 13:00 262 1.1
2020-Jan-27 12:50 262 1.1
2020-Jan-27 12:40 263 -0.0
2020-Jan-27 12:30 294 -0.0
2020-Jan-27 12:20 294 -0.0
2020-Jan-27 12:10 294 0.6
2020-Jan-27 12:00 294 0.6
2020-Jan-27 11:50 294 0.6
2020-Jan-27 11:40 294 1.1
2020-Jan-27 11:30 294 1.1
2020-Jan-27 11:20 294 0.6
2020-Jan-27 11:10 294 0.6
2020-Jan-27 11:00 294 0.6
2020-Jan-27 10:50 293 0.6
2020-Jan-27 10:40 294 0.6
2020-Jan-27 10:30 293 1.1
2020-Jan-27 10:20 293 1.1
2020-Jan-27 10:10 294 1.1
2020-Jan-27 10:00 294 1.1
2020-Jan-27 09:50 293 1.1
2020-Jan-27 09:40 294 0.6
2020-Jan-27 09:30 294 1.1
2020-Jan-27 09:20 294 1.1
2020-Jan-27 09:10 294 1.1
2020-Jan-27 09:00 294 1.7
2020-Jan-27 08:50 294 1.7
2020-Jan-27 08:40 294 1.7
2020-Jan-27 08:30 294 1.7
2020-Jan-27 08:20 294 2.2
2020-Jan-27 08:10 294 1.7
2020-Jan-27 08:00 294 1.1
2020-Jan-27 07:50 294 1.1
2020-Jan-27 07:40 294 0.6
2020-Jan-27 07:30 294 0.6
2020-Jan-27 07:20 294 0.6
2020-Jan-27 07:10 294 0.6
2020-Jan-27 07:00 294 0.6
2020-Jan-27 06:50 294 0.6
2020-Jan-27 06:40 294 1.1
2020-Jan-27 06:30 294 1.1
2020-Jan-27 06:20 294 1.1
2020-Jan-27 06:10 294 1.1
2020-Jan-27 06:00 294 1.7
2020-Jan-27 05:50 294 2.2
2020-Jan-27 05:40 294 2.2
2020-Jan-27 05:30 294 2.8
2020-Jan-27 05:20 294 3.3
2020-Jan-27 05:10 294 3.3
2020-Jan-27 05:00 294 3.9
2020-Jan-27 04:50 294 4.4
2020-Jan-27 04:40 294 5.0
2020-Jan-27 04:30 294 5.6
2020-Jan-27 04:20 294 6.1
2020-Jan-27 04:10 294 6.1
2020-Jan-27 04:00 294 6.7
2020-Jan-27 03:50 294 6.7
2020-Jan-27 03:40 292 7.2
2020-Jan-27 03:30 292 7.2
2020-Jan-27 03:20 292 7.2
2020-Jan-27 03:10 292 7.2
2020-Jan-27 03:00 317 7.2
2020-Jan-27 02:50 300 7.2
2020-Jan-27 02:40 312 7.2
2020-Jan-27 02:30 304 0 gusting 2 7.2
2020-Jan-27 02:20 295 7.2
2020-Jan-27 02:10 295 7.2
2020-Jan-27 02:00 310 7.8
2020-Jan-27 01:50 300 7.8
2020-Jan-27 01:40 290 7.8
2020-Jan-27 01:30 324 7.8
2020-Jan-27 01:20 298 7.2
2020-Jan-27 01:10 298 7.2
2020-Jan-27 01:00 298 7.2
2020-Jan-27 00:50 298 7.2
2020-Jan-27 00:40 298 6.7
2020-Jan-27 00:30 298 6.7
2020-Jan-27 00:20 298 6.7
2020-Jan-27 00:10 298 6.7
2020-Jan-27 00:00 298 7.2
2020-Jan-26 23:50 298 7.2
2020-Jan-26 23:40 298 7.2
2020-Jan-26 23:30 298 7.2
2020-Jan-26 23:20 298 7.8
2020-Jan-26 23:10 298 7.8
2020-Jan-26 23:00 298 7.8
2020-Jan-26 22:50 298 8.3
2020-Jan-26 22:40 298 8.3
2020-Jan-26 22:30 298 8.9
2020-Jan-26 22:20 298 8.9
2020-Jan-26 22:10 298 8.9
2020-Jan-26 22:00 298 8.9